Find PRAETORIAN SDA_518

NORAD ID: 100076 Int'l Des: 2026-163T Country: USA operational

当前视图

正在加载3D地球...

About PRAETORIAN SDA_518

PRAETORIAN SDA_518 (NORAD 100076) is a satellite of USA.

即将过境

Passes for default location (London). Set your location on the main map for personalized predictions.

高度历史

Loading altitude history...

两行轨道根数

1 A0076U 26206.56106376 .00000145 00000-0 11479-3 0 9998
2 A0076 81.4830 301.7488 0016715 189.9665 170.1165 13.86188862 1210
Epoch: Jul 25, 2026 • Age: 12 hours

当前状态

高度 959.8 km
远地点 / 近地点 N/A
速度 7.37 km/s
星下点 -17.77°S, 27.79°W
类型 other

Most Searched